Theta_e
330 330 329 324 324 323 327 327 324 325 326 327 328 332 333 333 336 335 336 336 336 336 339 338 337 337 335 334 332 330 331 331 333 334 333 331 331 330 330 329 328 327 329 328 329 327 327 327 326
330 330 326 317 323 327 327 324 328 326 326 331 330 333 336 337 334 335 336 336 336 337 338 339 337 336 335 333 332 329 331 330 331 332 334 332 330 329 329 329 327 328 328 328 328 327 326 325 325
330 327 323 322 320 326 328 326 324 328 326 326 331 331 334 336 333 336 337 336 336 337 338 338 337 336 335 333 330 329 330 329 333 330 330 332 330 329 328 327 327 327 327 327 327 327 324 324 325
329 325 320 323 327 324 326 324 327 328 326 325 330 334 331 334 334 337 337 336 336 336 338 338 336 335 334 331 329 327 328 328 331 331 330 330 330 329 328 327 327 327 327 327 327 327 324 323 323
327 321 325 328 327 324 324 326 326 327 325 326 330 332 335 334 335 336 337 336 335 336 337 337 336 335 334 330 328 328 327 326 329 330 326 331 327 326 324 326 326 326 326 327 326 325 323 323 323
325 323 328 332 333 326 325 327 327 326 325 325 330 333 335 333 335 336 337 336 335 335 337 337 336 335 333 331 329 327 326 325 328 329 327 328 327 326 325 326 326 325 326 326 326 321 322 322 322
327 327 331 332 333 329 326 324 328 326 325 325 328 332 332 333 335 336 337 336 334 335 336 337 336 334 333 332 329 328 326 324 327 328 327 325 327 326 325 323 325 325 326 326 324 318 319 321 322
323 325 332 331 333 331 325 324 322 324 326 320 327 326 328 332 334 337 337 336 335 335 335 336 335 334 333 332 330 328 326 324 326 328 327 326 325 326 325 324 321 325 325 325 323 318 316 318 320
321 329 332 332 331 331 325 325 321 322 326 325 323 326 328 333 334 337 337 337 336 336 336 334 334 334 333 332 331 329 326 325 323 326 326 326 325 324 324 324 323 322 322 324 320 317 316 316 316
324 327 330 327 327 329 327 325 322 324 326 326 327 331 331 333 334 336 336 335 336 337 336 335 334 333 333 333 332 330 327 326 325 323 322 323 324 324 323 322 323 324 323 320 319 317 316 316 315
326 327 325 328 326 326 327 326 325 323 325 323 325 325 331 330 332 334 335 336 336 338 337 336 335 333 332 332 333 331 329 327 325 324 322 319 320 322 323 320 321 322 323 322 318 317 316 316 315
330 327 326 328 326 326 328 326 328 322 323 321 322 323 330 329 330 331 333 335 336 336 337 336 335 334 332 331 332 332 330 328 327 325 324 322 319 318 318 319 318 319 321 321 321 318 317 315 314
329 327 327 327 325 325 325 327 327 326 323 322 323 323 329 329 330 332 332 333 335 336 336 336 335 334 332 331 331 332 331 329 328 327 325 323 322 320 317 316 317 318 319 319 319 318 317 317 316
320 324 326 324 325 324 327 325 326 325 324 323 323 323 326 329 331 331 332 332 333 334 335 335 335 335 334 331 330 331 331 330 328 328 327 325 323 321 321 320 319 320 320 318 316 316 316 316 316
322 325 322 320 321 322 323 324 325 322 325 325 323 322 321 324 331 331 332 332 333 333 333 334 334 335 334 333 332 331 331 329 328 328 328 327 325 323 323 323 323 322 322 322 318 314 315 316 317
324 323 325 321 320 320 321 323 317 319 323 324 323 320 319 318 321 325 329 332 332 333 332 333 333 334 334 334 333 332 332 330 328 328 327 327 327 325 323 323 324 323 323 323 319 318 317 317 317
321 318 322 320 318 320 321 322 318 316 320 321 319 316 315 314 315 317 319 321 324 328 331 332 332 333 334 334 333 333 332 331 330 330 328 327 327 326 325 324 324 324 324 324 322 321 320 319 319
319 322 319 319 318 318 320 321 318 316 316 315 314 314 313 314 313 317 319 319 320 321 324 329 331 332 332 333 333 332 332 331 331 330 330 329 327 326 325 325 325 325 325 324 324 323 322 321 320
312 318 319 317 318 321 319 319 319 316 314 314 314 312 311 312 314 316 317 318 319 319 321 326 330 331 331 330 330 329 331 331 330 330 330 329 328 326 326 326 325 325 325 325 324 323 323 323 321
317 318 317 317 317 318 316 316 314 313 312 311 311 310 309 310 311 313 316 317 318 318 317 320 327 330 331 330 329 329 328 328 330 330 330 329 328 327 326 326 326 325 325 325 324 324 322 322 322
321 319 316 317 317 316 317 317 314 313 313 312 311 311 310 311 312 312 313 315 315 315 316 318 322 327 330 330 329 328 328 328 328 327 328 329 329 328 327 326 326 326 325 325 324 324 323 320 320
320 318 316 317 318 317 315 311 310 312 314 314 313 311 311 311 311 310 311 312 314 315 315 315 319 326 328 330 329 329 328 327 328 327 329 329 329 328 327 326 325 325 325 325 324 323 323 321 320
315 317 319 316 316 318 316 318 314 315 316 314 312 311 310 309 309 308 308 311 315 317 314 315 319 324 328 329 330 329 328 329 328 328 327 327 327 328 328 328 326 324 324 324 323 322 322 321 320
313 315 317 316 320 319 315 316 312 310 313 314 313 312 311 311 310 310 310 309 311 315 318 320 324 326 328 330 330 329 328 328 328 328 328 327 327 327 327 327 327 327 325 324 323 322 321 321 320
316 316 313 318 320 316 310 315 312 311 311 311 310 311 311 311 308 306 304 305 306 308 315 322 325 327 328 330 330 330 330 330 329 329 328 328 327 327 328 328 328 328 328 326 324 322 321 321 319
317 316 311 310 315 315 313 318 314 313 312 311 309 310 310 308 305 304 304 304 304 305 307 308 311 317 323 326 328 329 330 330 330 330 329 329 328 329 328 328 328 328 327 327 325 323 322 321 320
316 319 313 314 308 311 313 313 313 312 312 312 312 309 307 306 304 303 302 303 303 303 303 303 301 302 303 305 306 309 314 319 323 327 328 329 329 329 329 328 328 328 328 327 326 325 323 322 321
314 314 318 317 316 318 314 316 315 313 311 310 309 307 306 305 302 301 300 301 301 301 300 299 299 299 300 300 301 301 302 302 302 303 304 306 309 315 322 327 328 329 328 328 327 325 324 323 322
315 316 314 313 317 316 312 314 310 312 312 309 307 306 304 302 301 299 298 298 297 297 298 296 296 296 296 297 297 297 298 298 298 298 299 300 301 303 304 309 318 325 327 327 327 326 326 323 322
312 313 314 316 314 315 313 312 308 308 309 306 307 304 303 301 299 296 296 295 294 293 294 294 293 293 293 294 295 295 295 296 296 296 297 297 297 298 299 301 303 308 318 324 326 326 325 324 323
Wind_Speed
28 24 9 4 4 5 1 3 1 1 2 3 1 4 3 2 2 2 1 10 19 22 21 19 17 16 13 10 8 12 14 13 14 13 14 14 13 13 14 13 13 13 13 14 14 15 15 15 13
29 14 4 3 5 3 3 3 3 2 3 6 3 2 2 1 1 3 11 10 20 22 21 21 19 18 14 11 9 12 15 14 12 11 14 13 14 13 13 13 12 12 12 13 13 14 14 15 14
20 8 3 4 3 4 4 3 3 2 4 3 2 2 3 1 2 11 4 17 21 22 21 20 20 18 15 10 12 12 15 16 13 12 11 12 13 13 12 13 12 12 11 11 11 12 14 13 12
10 7 4 4 3 0 2 5 4 3 1 2 3 1 2 1 2 13 11 19 21 20 20 20 19 16 13 11 12 12 15 17 15 12 11 12 12 12 12 12 12 11 10 10 10 10 11 11 8
5 3 4 4 2 1 2 4 5 3 0 1 2 2 1 1 4 12 18 21 21 20 20 19 18 15 12 10 11 11 13 16 16 11 9 12 8 8 10 12 12 11 10 9 9 10 10 9 7
4 3 4 2 3 3 1 3 4 1 1 1 2 3 2 2 6 13 20 20 19 20 20 19 18 15 13 11 10 10 11 14 16 11 9 11 9 6 8 11 11 10 9 9 8 9 9 7 5
4 3 3 3 2 1 2 6 3 4 2 2 5 2 3 2 8 15 20 17 18 19 20 19 17 16 13 12 12 11 10 12 16 11 9 10 9 6 6 9 10 9 8 7 7 8 8 7 5
4 3 3 1 3 2 1 4 2 5 5 2 4 1 2 3 14 18 18 17 16 18 19 19 18 17 16 14 12 11 11 11 14 13 13 10 11 8 7 5 7 8 7 6 6 7 7 7 6
2 4 1 3 4 3 1 2 1 0 4 1 3 2 3 8 16 20 17 16 17 19 20 20 19 19 17 16 15 13 12 12 13 14 14 13 12 13 12 9 5 5 7 8 6 6 6 6 6
4 3 7 3 3 2 0 1 4 2 2 2 2 3 3 18 21 21 17 16 19 22 23 21 21 20 19 18 18 16 15 15 14 14 16 16 15 13 12 11 11 8 7 8 8 7 8 8 8
2 5 4 3 4 1 3 1 2 4 3 6 7 2 3 12 20 20 23 23 25 23 24 25 23 22 22 21 21 20 18 17 17 16 15 16 17 16 14 12 14 13 11 11 11 10 10 10 10
3 5 4 2 1 2 1 3 4 5 4 3 2 2 5 7 14 19 22 29 29 29 28 26 25 24 24 23 23 23 22 21 20 19 17 17 18 17 17 16 14 14 14 13 12 13 13 13 12
4 4 5 4 2 2 1 4 5 5 8 4 4 3 7 8 15 19 23 23 27 30 30 30 28 27 26 26 26 25 25 25 23 22 21 19 19 19 18 17 17 16 15 16 15 15 15 15 14
3 5 3 3 5 3 3 4 3 4 5 8 5 7 6 8 20 17 19 24 28 33 33 31 32 30 29 28 28 28 28 28 26 25 24 23 21 20 20 19 19 18 17 16 18 18 17 17 17
2 3 3 4 4 5 4 8 10 8 3 6 7 7 7 11 19 22 29 29 32 34 35 35 34 33 32 31 31 30 29 29 28 28 28 27 26 23 23 22 22 22 19 19 19 19 20 21 20
4 3 3 3 9 6 9 18 1 8 6 10 10 8 8 9 15 20 28 32 32 33 35 35 36 37 36 36 34 33 31 30 30 30 29 29 29 29 27 27 26 25 23 21 22 21 21 22 22
2 3 5 6 8 4 8 9 4 2 8 8 8 9 7 8 14 23 24 24 28 32 34 36 36 39 40 40 38 36 34 33 32 32 31 30 30 31 31 31 30 27 27 26 24 25 24 25 25
6 4 5 6 2 6 6 12 9 7 4 8 8 9 9 10 13 26 26 25 25 27 29 32 35 38 40 39 39 38 37 36 35 36 34 32 31 31 32 33 33 31 29 30 28 28 28 28 27
6 5 8 2 3 3 8 12 19 9 5 8 12 8 10 12 19 27 30 29 25 24 24 28 33 37 36 37 36 35 42 40 38 38 36 35 34 32 33 34 33 33 34 33 31 31 31 31 27
4 4 5 4 3 3 5 11 14 10 9 9 10 10 10 9 10 20 28 26 24 26 28 29 31 34 37 37 36 32 26 33 41 39 38 37 36 35 34 35 36 35 36 35 34 32 31 30 27
13 16 4 3 3 3 5 16 10 10 5 7 8 9 7 11 14 10 17 22 24 28 30 29 32 33 35 38 32 27 25 24 22 31 37 40 38 38 37 37 37 37 37 38 37 35 35 25 24
16 7 7 5 3 5 3 10 7 4 5 5 8 8 9 12 7 7 13 21 24 28 24 25 29 30 31 32 31 32 29 26 32 29 35 36 34 35 36 37 38 38 40 40 40 38 36 32 28
6 8 12 6 4 3 7 4 5 1 4 6 7 9 9 6 6 8 9 13 15 15 15 17 21 25 27 29 34 34 30 33 26 24 28 28 29 29 31 33 35 39 40 43 40 37 38 36 32
7 5 4 3 9 10 16 8 17 11 6 5 6 7 4 3 4 1 6 11 19 16 5 7 12 17 20 23 26 28 28 24 16 19 22 25 28 30 30 32 33 35 37 40 42 40 36 39 37
8 8 3 6 7 13 10 8 21 3 4 6 8 8 4 3 5 6 8 14 22 28 24 10 3 3 9 14 21 24 27 25 23 24 24 25 26 28 33 31 32 33 35 37 38 37 38 39 37
22 14 5 7 5 8 4 10 17 4 12 12 9 4 5 6 4 6 7 15 21 27 30 33 32 25 15 4 6 13 17 21 23 24 25 27 27 31 31 31 33 34 32 33 34 35 37 38 38
15 17 8 3 1 2 5 7 10 7 7 5 3 6 7 7 5 7 9 19 23 30 33 32 35 35 33 29 27 23 17 12 8 12 17 20 23 28 30 30 33 34 32 33 33 34 36 38 38
9 7 8 7 8 9 4 4 9 2 6 5 6 8 8 6 7 7 10 19 25 29 30 33 34 34 33 31 30 27 24 22 20 18 17 15 14 16 19 24 29 34 35 34 32 35 36 36 35
8 9 6 4 7 5 3 7 7 11 6 8 8 9 8 7 7 7 11 20 22 27 29 29 31 32 32 30 29 28 27 25 24 24 24 23 22 21 20 18 20 24 27 30 33 36 34 33 34
19 16 19 6 10 4 1 5 4 7 8 10 9 8 6 8 7 7 14 17 21 24 26 26 28 29 30 28 27 27 27 27 27 27 26 26 27 27 26 25 23 21 23 26 29 34 30 32 34
Wind_Direction
337 343 343 41 56 66 351 267 284 123 96 311 38 139 157 81 161 207 156 155 156 155 155 157 156 147 143 151 154 146 136 132 129 122 113 106 107 105 101 101 103 105 108 107 104 99 90 81 86
337 345 18 77 86 73 279 266 218 191 141 128 82 56 72 147 156 104 136 163 162 158 160 160 161 153 161 170 169 147 145 141 133 126 126 112 114 109 114 106 111 110 110 111 109 100 94 91 81
341 347 72 85 102 150 182 212 193 200 153 189 102 94 162 203 177 166 168 165 165 164 165 167 166 163 168 178 166 154 154 150 139 137 136 124 118 117 114 119 117 117 113 115 112 107 111 104 88
346 10 37 78 96 234 223 192 190 155 51 100 130 39 319 251 202 171 165 169 170 171 171 172 174 173 177 177 164 156 161 155 141 148 137 143 126 122 121 120 124 123 121 122 121 118 119 116 92
26 57 47 69 335 297 254 186 156 163 135 126 171 242 230 15 152 176 168 172 178 177 177 180 181 180 184 179 169 165 160 159 149 153 146 150 131 131 139 142 133 134 133 137 135 133 134 127 106
29 87 55 116 313 300 142 149 133 200 127 165 87 140 266 175 171 175 175 177 183 183 183 185 187 190 188 186 179 170 169 167 165 153 167 164 154 152 149 146 146 151 153 153 146 149 146 139 121
92 65 163 169 222 265 174 149 164 180 159 247 143 127 276 225 186 177 180 185 187 191 188 192 194 197 199 196 188 182 180 173 168 168 182 175 182 156 157 157 157 164 170 162 165 159 161 160 154
101 85 114 263 209 213 181 180 116 160 222 74 158 227 308 231 185 181 182 189 195 198 199 200 203 203 204 203 202 196 191 184 188 184 183 182 182 177 181 181 183 178 183 188 190 173 173 179 187
101 66 229 220 168 238 201 148 105 178 123 121 191 184 221 171 171 176 183 192 200 205 208 209 210 213 211 211 208 206 205 197 193 203 207 199 193 204 214 198 202 214 209 207 205 197 197 205 209
91 130 213 195 226 245 21 210 183 141 129 221 248 224 175 165 172 177 187 196 205 211 212 215 217 218 218 217 215 214 213 211 209 207 214 219 215 214 216 214 209 217 240 231 225 221 221 226 227
140 178 222 261 195 216 324 335 162 151 223 216 208 222 143 175 181 187 199 207 206 212 219 220 223 223 222 222 221 220 220 221 219 219 217 218 221 225 227 224 218 218 230 231 231 232 236 241 243
183 216 193 254 217 121 218 341 311 177 221 273 125 95 182 197 201 205 209 211 216 218 224 226 227 226 227 227 227 227 225 225 226 225 225 224 225 226 227 227 224 227 230 234 240 243 245 247 250
207 205 190 242 219 263 156 235 232 245 264 265 329 264 212 217 228 226 228 230 228 225 227 228 228 229 229 229 229 230 231 232 233 230 230 230 231 234 233 232 229 232 235 241 245 248 252 255 257
217 198 219 224 249 255 234 264 163 242 247 255 248 231 245 226 233 241 238 238 236 239 239 232 231 232 231 231 231 231 233 237 237 236 234 235 237 239 239 239 237 239 240 246 249 251 253 256 258
229 290 334 206 220 242 164 276 232 222 221 244 233 253 261 241 250 244 249 244 244 245 245 243 237 231 233 234 236 234 237 239 240 239 238 238 239 241 241 248 249 248 249 253 253 252 255 257 258
172 167 199 236 175 239 144 260 154 218 197 246 260 260 262 261 251 254 260 258 256 253 251 249 245 239 234 234 236 237 239 240 242 243 242 240 241 242 245 250 255 256 254 258 257 256 256 258 261
270 216 221 300 204 164 188 269 266 177 174 233 261 271 269 276 272 268 261 264 261 259 256 252 247 242 239 235 235 238 241 241 244 244 245 245 244 243 245 250 256 258 258 258 259 260 260 263 266
192 198 235 210 259 218 209 258 253 265 233 240 242 262 283 278 267 277 269 268 273 266 260 254 250 245 241 238 235 236 239 241 243 246 245 246 247 247 247 249 254 258 259 260 259 260 262 264 269
181 187 204 231 260 208 235 247 263 260 224 255 261 243 249 261 272 277 277 278 270 266 260 252 244 244 236 227 226 228 231 236 241 244 247 248 247 248 248 250 251 254 255 257 259 262 261 263 265
181 191 215 295 241 210 289 266 264 249 236 221 243 250 245 252 269 270 274 272 266 268 271 259 246 242 236 228 227 224 233 237 241 246 247 247 248 248 247 248 251 252 254 256 255 255 257 260 260
224 225 142 187 355 299 347 289 240 259 226 221 239 235 245 239 254 262 274 280 289 287 277 265 250 241 237 231 225 226 232 237 234 238 247 247 247 249 248 250 250 252 254 256 258 255 253 245 256
223 178 165 183 98 241 131 278 230 229 249 208 241 240 237 247 268 278 288 296 295 295 287 267 253 243 240 232 219 220 220 227 237 238 247 250 251 251 252 253 255 255 256 257 256 259 255 250 245
220 152 195 164 177 29 245 286 288 240 282 266 259 252 248 271 273 281 294 303 317 306 278 259 249 242 239 232 226 224 222 236 243 249 251 253 256 254 256 257 257 258 257 260 257 253 254 250 244
134 78 81 116 223 243 234 201 265 234 199 218 247 253 294 277 302 7 27 30 36 29 340 263 247 246 242 233 234 230 235 242 253 255 256 259 263 264 261 259 257 259 260 261 259 257 250 253 246
166 134 184 214 210 239 152 178 246 264 277 240 241 244 147 126 92 51 28 21 37 44 50 68 71 275 246 236 235 239 243 248 252 258 260 263 263 263 271 270 266 263 264 264 263 257 253 251 244
201 197 164 195 209 233 183 214 236 213 241 269 215 203 143 125 84 75 42 44 39 53 60 63 68 70 70 65 264 260 261 262 264 270 268 267 267 273 275 271 273 269 267 265 264 262 257 254 249
192 213 199 109 58 89 213 280 303 239 250 259 279 121 150 138 106 86 63 61 61 62 62 61 61 62 63 66 67 65 60 46 7 304 289 285 287 287 280 278 275 275 272 269 267 263 258 256 253
172 140 195 219 210 230 257 256 231 308 260 196 152 150 151 136 105 76 62 70 68 65 59 57 55 52 53 53 51 51 50 48 45 40 28 13 352 333 315 301 287 280 273 268 266 265 262 252 252
167 207 213 182 197 207 198 249 218 227 189 173 163 145 150 131 99 74 66 63 59 57 53 49 45 41 41 39 39 38 35 33 33 30 21 14 4 355 347 332 312 297 280 275 267 263 266 253 256
212 213 204 203 208 211 119 265 303 227 192 157 155 147 138 92 86 74 69 60 50 44 43 41 37 33 29 25 24 23 21 19 17 15 11 6 0 353 347 339 329 318 304 289 274 261 259 257 254